Location: Windsor
(43.2292°N, 89.3015°W)
Time: 19:31:28
(UTC+00:00)

First-Move - Pass Details

Date: 02 July 2022
Orbit: 572 x 658 km, 97.6° (Epoch: 07 August)

Event Time Altitude Azimuth Distance (km) Brightness Sun altitude
Rises 09:28:37 0° 20° (NNE) 2,953 ? -8.4°
Reaches altitude 10° 09:30:58 10° 29° (NNE) 2,050 ? -8.1°
Maximum altitude 09:35:08 38° 97° (E) 1,002 ? -7.5°
Drops below altitude 10° 09:39:20 10° 166° (SSE) 2,062 ? -7.0°
Sets 09:41:41 0° 174° (S) 2,972 ? -6.7°
